^^

..:: Storico WU ::..




Lo storico viene creato da WUnderground con i dati che la stazione Meteomincio invia al loro server. L' aggiornamento viene fatto ogni 5 minuti circa, tuttavia possono esserci intervalli pił ampi a causa di errori, interruzioni di servizio o problemi nell' invio tramite FTP.


Storico stazione MeteoMincio
Giorno Sommario per Febbario 16, 2022 Unità:  Inglese    Metrico   Entrambi
Giorno Settimana Mese Anno
  Max: Min: Media:
Temperatura: 50 °F 30.2 °F 38.8 °F
Dew Point: 46.4 °F 28.4 °F 37.4 °F
Umidità: 99% 84% 95%
Velocità vento: 7.5mph 0mph 4.1mph
Raffica: 10.6mph - -
Direzione- - WSW
Pressione: 30.1 in 30 in -
Precipitazioni: 0 in    
 
 
Tabulato Dati per Febbario 16, 2022
Ora Temperatura Dew Point Pressione Direzione Velocità vento Raffica Umidità Intensità pioggia (oraria) Info solare Situazione
00:04 39.2 °F 37.4 °F 30 in NW 3.1 mph 3.7 mph 96% 0 in 0.00 W/m2 unknown
00:09 39.2 °F 37.4 °F 30 in NW 4.3 mph 6.2 mph 95% 0 in 0.00 W/m2 unknown
00:14 39.2 °F 37.4 °F 30 in WNW 5.6 mph 6.8 mph 96% 0 in 0.00 W/m2 unknown
00:19 39.2 °F 37.4 °F 30 in WNW 5 mph 6.8 mph 96% 0 in 0.00 W/m2 unknown
00:24 39.2 °F 37.4 °F 30 in WNW 4.3 mph 6.2 mph 95% 0 in 0.00 W/m2 unknown
00:29 37.4 °F 37.4 °F 30 in NW 3.1 mph 6.2 mph 95% 0 in 0.00 W/m2 unknown
00:34 37.4 °F 37.4 °F 30 in NW 1.9 mph 2.5 mph 96% 0 in 0.00 W/m2 unknown
00:39 37.4 °F 37.4 °F 30 in WNW 2.5 mph 3.7 mph 96% 0 in 0.00 W/m2 unknown
00:44 37.4 °F 37.4 °F 30 in WNW 3.1 mph 3.7 mph 96% 0 in 0.00 W/m2 unknown
00:49 37.4 °F 37.4 °F 30 in WNW 3.1 mph 3.7 mph 96% 0 in 0.00 W/m2 unknown
00:54 37.4 °F 37.4 °F 30 in WNW 2.5 mph 3.7 mph 96% 0 in 0.00 W/m2 unknown
00:59 37.4 °F 37.4 °F 30 in WNW 2.5 mph 3.7 mph 96% 0 in 0.00 W/m2 unknown
01:04 37.4 °F 37.4 °F 30 in WNW 2.5 mph 3.7 mph 96% 0 in 0.00 W/m2 unknown
01:09 37.4 °F 37.4 °F 30 in WNW 2.5 mph 3.7 mph 96% 0 in 0.00 W/m2 unknown
01:14 37.4 °F 37.4 °F 30 in WNW 4.3 mph 5 mph 96% 0 in 0.00 W/m2 unknown
01:19 37.4 °F 37.4 °F 30 in West 5 mph 6.2 mph 96% 0 in 0.00 W/m2 unknown
01:24 37.4 °F 35.6 °F 30 in West 5 mph 6.2 mph 96% 0 in 0.00 W/m2 unknown
01:29 37.4 °F 35.6 °F 30 in West 5 mph 6.2 mph 96% 0 in 0.00 W/m2 unknown
01:34 37.4 °F 35.6 °F 30 in West 6.8 mph 8.1 mph 96% 0 in 0.00 W/m2 unknown
01:39 37.4 °F 35.6 °F 30 in West 6.8 mph 8.1 mph 96% 0 in 0.00 W/m2 unknown
01:44 37.4 °F 35.6 °F 30 in WNW 6.2 mph 8.1 mph 96% 0 in 0.00 W/m2 unknown
01:49 37.4 °F 35.6 °F 30 in WNW 3.7 mph 8.1 mph 96% 0 in 0.00 W/m2 unknown
01:54 37.4 °F 35.6 °F 30 in West 5 mph 6.2 mph 96% 0 in 0.00 W/m2 unknown
01:59 37.4 °F 35.6 °F 30 in WNW 3.1 mph 6.2 mph 96% 0 in 0.00 W/m2 unknown
02:04 35.6 °F 35.6 °F 30 in WNW 2.5 mph 5 mph 96% 0 in 0.00 W/m2 unknown
02:09 35.6 °F 35.6 °F 30 in West 2.5 mph 3.7 mph 96% 0 in 0.00 W/m2 unknown
02:14 35.6 °F 35.6 °F 30 in West 3.1 mph 3.7 mph 96% 0 in 0.00 W/m2 unknown
02:19 35.6 °F 35.6 °F 30 in WNW 3.1 mph 3.7 mph 97% 0 in 0.00 W/m2 unknown
02:24 35.6 °F 35.6 °F 30 in West 1.9 mph 3.7 mph 96% 0 in 0.00 W/m2 unknown
02:29 35.6 °F 35.6 °F 30 in West 2.5 mph 3.7 mph 96% 0 in 0.00 W/m2 unknown
02:34 35.6 °F 33.8 °F 30 in West 2.5 mph 3.7 mph 96% 0 in 0.00 W/m2 unknown
02:39 35.6 °F 33.8 °F 30 in West 1.2 mph 2.5 mph 96% 0 in 0.00 W/m2 unknown
02:44 35.6 °F 33.8 °F 30 in Calm   1.9 mph 96% 0 in 0.00 W/m2 unknown
02:49 35.6 °F 33.8 °F 30 in WNW 1.2 mph 1.9 mph 96% 0 in 0.00 W/m2 unknown
02:54 33.8 °F 33.8 °F 30 in SSW 1.9 mph 2.5 mph 96% 0 in 0.00 W/m2 unknown
02:59 33.8 °F 33.8 °F 30 in Calm   1.9 mph 96% 0 in 0.00 W/m2 unknown
03:04 33.8 °F 33.8 °F 30 in South 1.9 mph 3.1 mph 96% 0 in 0.00 W/m2 unknown
03:09 33.8 °F 33.8 °F 30 in West 3.1 mph 3.7 mph 96% 0 in 0.00 W/m2 unknown
03:14 33.8 °F 33.8 °F 30 in West 3.1 mph 3.7 mph 97% 0 in 0.00 W/m2 unknown
03:19 33.8 °F 33.8 °F 30 in WNW 3.1 mph 3.7 mph 97% 0 in 0.00 W/m2 unknown
03:24 33.8 °F 33.8 °F 30 in WNW 1.2 mph 3.7 mph 97% 0 in 0.00 W/m2 unknown
03:29 33.8 °F 33.8 °F 30 in Calm   1.9 mph 97% 0 in 0.00 W/m2 unknown
03:34 33.8 °F 33.8 °F 30 in WNW 2.5 mph 3.7 mph 97% 0 in 0.00 W/m2 unknown
03:39 33.8 °F 33.8 °F 30 in NW 3.1 mph 5 mph 97% 0 in 0.00 W/m2 unknown
03:44 33.8 °F 33.8 °F 30 in WNW 2.5 mph 5 mph 97% 0 in 0.00 W/m2 unknown
03:49 33.8 °F 33.8 °F 30 in WNW 1.9 mph 3.7 mph 97% 0 in 0.00 W/m2 unknown
03:54 33.8 °F 33.8 °F 30 in NW 2.5 mph 3.7 mph 97% 0 in 0.00 W/m2 unknown
03:59 33.8 °F 32 °F 30 in NW 1.9 mph 3.1 mph 97% 0 in 0.00 W/m2 unknown
04:04 33.8 °F 32 °F 30 in NW 1.2 mph 2.5 mph 97% 0 in 0.00 W/m2 unknown
04:09 33.8 °F 32 °F 30 in NW 1.9 mph 3.1 mph 97% 0 in 0.00 W/m2 unknown
04:14 33.8 °F 32 °F 30 in NW 2.5 mph 3.7 mph 97% 0 in 0.00 W/m2 unknown
04:19 33.8 °F 32 °F 30 in WNW 3.1 mph 3.7 mph 97% 0 in 0.00 W/m2 unknown
04:24 32 °F 32 °F 30.1 in WNW 3.7 mph 5 mph 97% 0 in 0.00 W/m2 unknown
04:29 32 °F 32 °F 30.1 in NW 2.5 mph 3.7 mph 97% 0 in 0.00 W/m2 unknown
04:34 32 °F 32 °F 30.1 in NW 1.9 mph 3.7 mph 97% 0 in 0.00 W/m2 unknown
04:39 32 °F 32 °F 30.1 in NNW 1.2 mph 3.1 mph 97% 0 in 0.00 W/m2 unknown
04:44 32 °F 32 °F 30.1 in NW 1.9 mph 2.5 mph 97% 0 in 0.00 W/m2 unknown
04:49 32 °F 32 °F 30.1 in WNW 1.9 mph 3.7 mph 97% 0 in 0.00 W/m2 unknown
04:54 32 °F 32 °F 30.1 in WNW 1.2 mph 2.5 mph 97% 0 in 0.00 W/m2 unknown
04:59 32 °F 30.2 °F 30.1 in WNW 1.2 mph 2.5 mph 97% 0 in 0.00 W/m2 unknown
05:04 32 °F 30.2 °F 30.1 in WNW 1.9 mph 2.5 mph 97% 0 in 0.00 W/m2 unknown
05:09 32 °F 30.2 °F 30.1 in WNW 2.5 mph 3.7 mph 97% 0 in 0.00 W/m2 unknown
05:14 32 °F 30.2 °F 30.1 in WNW 1.9 mph 3.1 mph 97% 0 in 0.00 W/m2 unknown
05:19 30.2 °F 30.2 °F 30.1 in West 1.9 mph 3.7 mph 97% 0 in 0.00 W/m2 unknown
05:24 30.2 °F 30.2 °F 30.1 in WSW 1.9 mph 3.1 mph 97% 0 in 0.00 W/m2 unknown
05:29 30.2 °F 30.2 °F 30.1 in WSW 2.5 mph 3.7 mph 97% 0 in 0.00 W/m2 unknown
05:34 30.2 °F 30.2 °F 30.1 in WSW 2.5 mph 3.7 mph 97% 0 in 0.00 W/m2 unknown
05:39 30.2 °F 30.2 °F 30.1 in WSW 2.5 mph 3.7 mph 97% 0 in 0.00 W/m2 unknown
05:44 30.2 °F 30.2 °F 30.1 in WSW 2.5 mph 3.7 mph 97% 0 in 0.00 W/m2 unknown
05:49 30.2 °F 30.2 °F 30.1 in WSW 2.5 mph 3.7 mph 97% 0 in 0.00 W/m2 unknown
05:54 30.2 °F 30.2 °F 30.1 in West 2.5 mph 3.7 mph 97% 0 in 0.00 W/m2 unknown
05:59 30.2 °F 30.2 °F 30.1 in West 3.7 mph 3.7 mph 97% 0 in 0.00 W/m2 unknown
06:04 30.2 °F 30.2 °F 30.1 in West 4.3 mph 6.2 mph 97% 0 in 0.00 W/m2 unknown
06:09 30.2 °F 30.2 °F 30.1 in West 5 mph 6.2 mph 97% 0 in 0.00 W/m2 unknown
06:14 30.2 °F 30.2 °F 30.1 in West 3.7 mph 6.2 mph 97% 0 in 0.00 W/m2 unknown
06:19 30.2 °F 30.2 °F 30.1 in West 4.3 mph 5 mph 97% 0 in 0.00 W/m2 unknown
06:24 30.2 °F 30.2 °F 30.1 in West 3.7 mph 5 mph 97% 0 in 0.00 W/m2 unknown
06:29 30.2 °F 30.2 °F 30.1 in WSW 2.5 mph 3.7 mph 97% 0 in 0.00 W/m2 unknown
06:34 30.2 °F 30.2 °F 30.1 in South 1.2 mph 3.1 mph 98% 0 in 0.00 W/m2 unknown
06:39 30.2 °F 30.2 °F 30.1 in SSW 3.1 mph 3.7 mph 98% 0 in 0.00 W/m2 unknown
06:44 30.2 °F 30.2 °F 30.1 in SSW 3.1 mph 3.7 mph 98% 0 in 0.00 W/m2 unknown
06:49 30.2 °F 30.2 °F 30.1 in SW 3.7 mph 5 mph 98% 0 in 0.00 W/m2 unknown
06:54 30.2 °F 30.2 °F 30.1 in SW 3.7 mph 5 mph 98% 0 in 0.00 W/m2 unknown
06:59 30.2 °F 30.2 °F 30.1 in WSW 3.7 mph 5 mph 97% 0 in 0.00 W/m2 unknown
07:04 30.2 °F 30.2 °F 30.1 in WSW 5 mph 6.2 mph 98% 0 in 0.00 W/m2 unknown
07:09 30.2 °F 30.2 °F 30.1 in WSW 5.6 mph 6.8 mph 98% 0 in 0.00 W/m2 unknown
07:14 30.2 °F 30.2 °F 30.1 in WSW 5 mph 6.8 mph 98% 0 in 0.00 W/m2 unknown
07:19 30.2 °F 28.4 °F 30.1 in WSW 4.3 mph 6.2 mph 97% 0 in 0.00 W/m2 unknown
07:24 30.2 °F 28.4 °F 30.1 in WSW 5 mph 6.2 mph 97% 0 in 7.00 W/m2 unknown
07:29 30.2 °F 28.4 °F 30.1 in WSW 2.5 mph 3.7 mph 98% 0 in 11.00 W/m2 unknown
07:34 30.2 °F 28.4 °F 30.1 in WSW 3.1 mph 3.7 mph 98% 0 in 16.00 W/m2 unknown
07:39 30.2 °F 28.4 °F 30.1 in WSW 3.1 mph 3.7 mph 98% 0 in 21.00 W/m2 unknown
07:44 30.2 °F 28.4 °F 30.1 in SW 3.7 mph 3.7 mph 98% 0 in 30.00 W/m2 unknown
07:49 30.2 °F 28.4 °F 30.1 in WSW 3.1 mph 3.7 mph 98% 0 in 37.00 W/m2 unknown
07:54 30.2 °F 28.4 °F 30.1 in WSW 4.3 mph 6.2 mph 98% 0 in 46.00 W/m2 unknown
07:59 30.2 °F 28.4 °F 30.1 in WSW 4.3 mph 6.2 mph 98% 0 in 54.00 W/m2 unknown
08:04 30.2 °F 30.2 °F 30.1 in WSW 3.1 mph 6.2 mph 98% 0 in 58.00 W/m2 unknown
08:09 30.2 °F 28.4 °F 30.1 in West 3.7 mph 3.7 mph 98% 0 in 74.00 W/m2 unknown
08:14 30.2 °F 30.2 °F 30.1 in WSW 3.1 mph 3.7 mph 98% 0 in 86.00 W/m2 unknown
08:19 30.2 °F 30.2 °F 30.1 in West 3.7 mph 5 mph 98% 0 in 90.00 W/m2 unknown
08:24 30.2 °F 30.2 °F 30.1 in WSW 3.1 mph 5 mph 98% 0 in 88.00 W/m2 unknown
08:29 30.2 °F 30.2 °F 30.1 in WSW 3.7 mph 5 mph 98% 0 in 93.00 W/m2 unknown
08:34 30.2 °F 30.2 °F 30.1 in West 4.3 mph 5 mph 98% 0 in 88.00 W/m2 unknown
08:39 30.2 °F 30.2 °F 30.1 in West 4.3 mph 5 mph 98% 0 in 88.00 W/m2 unknown
08:44 30.2 °F 30.2 °F 30.1 in West 3.7 mph 5 mph 98% 0 in 109.00 W/m2 unknown
08:49 30.2 °F 30.2 °F 30.1 in West 3.7 mph 5 mph 98% 0 in 139.00 W/m2 unknown
08:54 32 °F 30.2 °F 30.1 in West 5.6 mph 6.2 mph 98% 0 in 127.00 W/m2 unknown
08:59 32 °F 30.2 °F 30.1 in WSW 5.6 mph 6.2 mph 98% 0 in 128.00 W/m2 unknown
09:04 32 °F 30.2 °F 30.1 in WSW 3.7 mph 5 mph 98% 0 in 121.00 W/m2 unknown
09:09 32 °F 30.2 °F 30.1 in WSW 3.7 mph 5 mph 98% 0 in 142.00 W/m2 unknown
09:14 32 °F 32 °F 30.1 in WSW 4.3 mph 5 mph 98% 0 in 171.00 W/m2 unknown
09:19 32 °F 32 °F 30.1 in WSW 5.6 mph 6.8 mph 98% 0 in 190.00 W/m2 unknown
09:24 32 °F 32 °F 30.1 in WSW 5.6 mph 6.8 mph 98% 0 in 207.00 W/m2 unknown
09:29 32 °F 32 °F 30.1 in WSW 6.2 mph 6.2 mph 98% 0 in 193.00 W/m2 unknown
09:34 32 °F 32 °F 30.1 in WSW 5.6 mph 6.2 mph 98% 0 in 193.00 W/m2 unknown
09:39 33.8 °F 32 °F 30.1 in WSW 5 mph 6.2 mph 98% 0 in 190.00 W/m2 unknown
09:44 33.8 °F 33.8 °F 30.1 in WSW 5 mph 6.2 mph 98% 0 in 241.00 W/m2 unknown
09:49 33.8 °F 33.8 °F 30.1 in West 5 mph 6.2 mph 98% 0 in 232.00 W/m2 unknown
09:54 33.8 °F 33.8 °F 30.1 in West 5 mph 6.2 mph 98% 0 in 209.00 W/m2 unknown
09:59 33.8 °F 33.8 °F 30.1 in West 5.6 mph 6.2 mph 98% 0 in 264.00 W/m2 unknown
10:04 35.6 °F 35.6 °F 30.1 in West 5 mph 6.2 mph 99% 0 in 213.00 W/m2 unknown
10:09 35.6 °F 35.6 °F 30.1 in WSW 5 mph 6.2 mph 99% 0 in 258.00 W/m2 unknown
10:14 35.6 °F 35.6 °F 30.1 in WSW 4.3 mph 6.2 mph 99% 0 in 299.00 W/m2 unknown
10:19 35.6 °F 35.6 °F 30.1 in WSW 5 mph 6.8 mph 99% 0 in 234.00 W/m2 unknown
10:24 35.6 °F 35.6 °F 30.1 in WSW 5 mph 6.8 mph 99% 0 in 276.00 W/m2 unknown
10:29 37.4 °F 35.6 °F 30.1 in WSW 5.6 mph 6.8 mph 99% 0 in 411.00 W/m2 unknown
10:34 37.4 °F 37.4 °F 30.1 in WSW 5.6 mph 6.8 mph 99% 0 in 411.00 W/m2 unknown
10:39 37.4 °F 37.4 °F 30.1 in WSW 5 mph 6.8 mph 99% 0 in 376.00 W/m2 unknown
10:44 37.4 °F 37.4 °F 30.1 in WSW 5 mph 6.2 mph 99% 0 in 288.00 W/m2 unknown
10:49 39.2 °F 37.4 °F 30.1 in WSW 5 mph 6.2 mph 99% 0 in 418.00 W/m2 unknown
10:54 39.2 °F 39.2 °F 30.1 in WSW 5 mph 6.2 mph 99% 0 in 348.00 W/m2 unknown
10:59 39.2 °F 39.2 °F 30.1 in WSW 5 mph 6.2 mph 99% 0 in 348.00 W/m2 unknown
11:04 39.2 °F 39.2 °F 30.1 in WSW 5 mph 6.8 mph 99% 0 in 214.00 W/m2 unknown
11:09 41 °F 39.2 °F 30.1 in SW 5.6 mph 6.8 mph 99% 0 in 271.00 W/m2 unknown
11:14 41 °F 41 °F 30.1 in West 5 mph 6.8 mph 99% 0 in 552.00 W/m2 unknown
11:19 41 °F 41 °F 30.1 in WSW 6.2 mph 8.1 mph 99% 0 in 552.00 W/m2 unknown
11:24 41 °F 41 °F 30.1 in WSW 6.8 mph 8.1 mph 99% 0 in 225.00 W/m2 unknown
11:29 41 °F 41 °F 30.1 in West 6.2 mph 8.1 mph 99% 0 in 237.00 W/m2 unknown
11:34 41 °F 41 °F 30.1 in West 6.8 mph 9.3 mph 99% 0 in 209.00 W/m2 unknown
11:39 41 °F 41 °F 30.1 in West 6.8 mph 8.7 mph 98% 0 in 330.00 W/m2 unknown
11:44 41 °F 41 °F 30.1 in WSW 6.2 mph 8.1 mph 98% 0 in 396.00 W/m2 unknown
11:49 42.8 °F 41 °F 30.1 in WSW 6.2 mph 6.8 mph 98% 0 in 561.00 W/m2 unknown
11:54 42.8 °F 41 °F 30.1 in WSW 6.2 mph 6.8 mph 97% 0 in 534.00 W/m2 unknown
11:59 42.8 °F 41 °F 30.1 in WSW 6.8 mph 8.7 mph 95% 0 in 679.00 W/m2 unknown
12:04 42.8 °F 42.8 °F 30.1 in WSW 6.8 mph 9.3 mph 95% 0 in 679.00 W/m2 unknown
12:09 42.8 °F 42.8 °F 30.1 in WSW 7.5 mph 8.7 mph 94% 0 in 659.00 W/m2 unknown
12:14 42.8 °F 42.8 °F 30.1 in WSW 6.8 mph 9.3 mph 94% 0 in 582.00 W/m2 unknown
12:19 44.6 °F 42.8 °F 30.1 in WSW 6.8 mph 9.3 mph 94% 0 in 598.00 W/m2 unknown
12:24 44.6 °F 42.8 °F 30.1 in WSW 6.8 mph 9.3 mph 93% 0 in 621.00 W/m2 unknown
12:29 44.6 °F 42.8 °F 30.1 in WSW 6.8 mph 8.7 mph 93% 0 in 598.00 W/m2 unknown
12:34 44.6 °F 42.8 °F 30.1 in WSW 6.8 mph 8.1 mph 93% 0 in 341.00 W/m2 unknown
12:39 44.6 °F 42.8 °F 30.1 in WSW 6.8 mph 8.1 mph 92% 0 in 506.00 W/m2 unknown
12:44 44.6 °F 42.8 °F 30.1 in WSW 5.6 mph 8.1 mph 92% 0 in 582.00 W/m2 unknown
12:49 44.6 °F 42.8 °F 30.1 in WSW 5 mph 6.8 mph 92% 0 in 571.00 W/m2 unknown
12:54 44.6 °F 42.8 °F 30.1 in WSW 5.6 mph 6.8 mph 91% 0 in 339.00 W/m2 unknown
12:59 44.6 °F 42.8 °F 30 in WSW 5 mph 6.2 mph 91% 0 in 271.00 W/m2 unknown
13:04 46.4 °F 42.8 °F 30 in WSW 4.3 mph 6.2 mph 91% 0 in 243.00 W/m2 unknown
13:09 46.4 °F 42.8 °F 30 in WSW 4.3 mph 6.2 mph 91% 0 in 244.00 W/m2 unknown
13:14 46.4 °F 42.8 °F 30 in West 4.3 mph 6.2 mph 91% 0 in 248.00 W/m2 unknown
13:19 46.4 °F 44.6 °F 30 in West 5.6 mph 6.8 mph 91% 0 in 239.00 W/m2 unknown
13:24 46.4 °F 42.8 °F 30 in West 6.2 mph 6.8 mph 90% 0 in 218.00 W/m2 unknown
13:29 46.4 °F 42.8 °F 30 in WSW 5.6 mph 6.8 mph 90% 0 in 237.00 W/m2 unknown
13:34 46.4 °F 44.6 °F 30 in WSW 5.6 mph 6.8 mph 91% 0 in 397.00 W/m2 unknown
13:39 46.4 °F 44.6 °F 30 in WSW 5 mph 6.8 mph 90% 0 in 397.00 W/m2 unknown
13:44 48.2 °F 44.6 °F 30 in WSW 5 mph 6.8 mph 89% 0 in 323.00 W/m2 unknown
13:49 48.2 °F 44.6 °F 30 in WSW 5 mph 6.8 mph 90% 0 in 311.00 W/m2 unknown
13:54 48.2 °F 44.6 °F 30 in West 5 mph 6.2 mph 88% 0 in 302.00 W/m2 unknown
13:59 48.2 °F 44.6 °F 30 in WSW 6.2 mph 8.1 mph 87% 0 in 301.00 W/m2 unknown
14:04 48.2 °F 44.6 °F 30 in WSW 6.2 mph 8.1 mph 87% 0 in 281.00 W/m2 unknown
14:09 48.2 °F 44.6 °F 30 in WSW 5.6 mph 8.1 mph 85% 0 in 301.00 W/m2 unknown
14:14 48.2 °F 44.6 °F 30 in WSW 6.2 mph 8.1 mph 85% 0 in 257.00 W/m2 unknown
14:19 48.2 °F 44.6 °F 30 in WSW 6.2 mph 8.1 mph 86% 0 in 232.00 W/m2 unknown
14:24 48.2 °F 44.6 °F 30 in WSW 5 mph 6.8 mph 85% 0 in 183.00 W/m2 unknown
14:29 48.2 °F 44.6 °F 30 in WSW 5.6 mph 6.8 mph 85% 0 in 160.00 W/m2 unknown
14:34 48.2 °F 44.6 °F 30 in WSW 5 mph 6.8 mph 86% 0 in 169.00 W/m2 unknown
14:39 48.2 °F 44.6 °F 30 in West 6.2 mph 6.8 mph 86% 0 in 190.00 W/m2 unknown
14:44 48.2 °F 44.6 °F 30 in WSW 6.2 mph 6.8 mph 87% 0 in 223.00 W/m2 unknown
14:49 48.2 °F 44.6 °F 30 in West 6.8 mph 8.1 mph 86% 0 in 336.00 W/m2 unknown
14:54 48.2 °F 44.6 °F 30 in West 6.8 mph 8.1 mph 86% 0 in 439.00 W/m2 unknown
14:59 50 °F 46.4 °F 30 in WSW 6.8 mph 8.1 mph 87% 0 in 439.00 W/m2 unknown
15:04 50 °F 44.6 °F 30 in SW 7.5 mph 9.3 mph 85% 0 in 301.00 W/m2 unknown
15:09 48.2 °F 44.6 °F 30 in SW 6.8 mph 8.7 mph 86% 0 in 246.00 W/m2 unknown
15:14 48.2 °F 44.6 °F 30 in WSW 7.5 mph 9.3 mph 86% 0 in 218.00 W/m2 unknown
15:19 48.2 °F 44.6 °F 30 in WSW 6.8 mph 8.7 mph 86% 0 in 258.00 W/m2 unknown
15:24 50 °F 44.6 °F 30 in WSW 6.8 mph 8.1 mph 86% 0 in 267.00 W/m2 unknown
15:29 50 °F 46.4 °F 30 in WSW 6.2 mph 8.1 mph 87% 0 in 306.00 W/m2 unknown
15:34 50 °F 46.4 °F 30 in WSW 7.5 mph 10.6 mph 86% 0 in 264.00 W/m2 unknown
15:39 50 °F 46.4 °F 30 in WSW 6.2 mph 9.9 mph 86% 0 in 338.00 W/m2 unknown
15:44 50 °F 46.4 °F 30 in WSW 6.8 mph 9.3 mph 85% 0 in 294.00 W/m2 unknown
15:49 50 °F 46.4 °F 30 in SW 6.2 mph 8.7 mph 86% 0 in 267.00 W/m2 unknown
15:54 50 °F 44.6 °F 30 in SW 6.2 mph 8.1 mph 86% 0 in 216.00 W/m2 unknown
15:59 50 °F 44.6 °F 30 in WSW 4.3 mph 8.1 mph 85% 0 in 239.00 W/m2 unknown
16:04 50 °F 44.6 °F 30 in WSW 5 mph 6.8 mph 84% 0 in 255.00 W/m2 unknown
16:09 50 °F 44.6 °F 30 in SW 5.6 mph 6.8 mph 85% 0 in 243.00 W/m2 unknown
16:14 50 °F 44.6 °F 30 in WSW 5.6 mph 6.8 mph 85% 0 in 218.00 W/m2 unknown
16:19 50 °F 44.6 °F 30 in WSW 5.6 mph 8.1 mph 85% 0 in 169.00 W/m2 unknown
16:24 50 °F 44.6 °F 30 in WSW 6.2 mph 8.1 mph 86% 0 in 149.00 W/m2 unknown
16:29 48.2 °F 44.6 °F 30 in WSW 5 mph 8.1 mph 86% 0 in 128.00 W/m2 unknown
16:34 48.2 °F 44.6 °F 30 in WSW 5.6 mph 8.1 mph 85% 0 in 132.00 W/m2 unknown
16:39 48.2 °F 44.6 °F 30 in WSW 6.2 mph 8.1 mph 85% 0 in 132.00 W/m2 unknown
16:44 48.2 °F 44.6 °F 30 in WSW 5.6 mph 8.1 mph 86% 0 in 102.00 W/m2 unknown
16:49 48.2 °F 44.6 °F 30 in WSW 6.2 mph 8.1 mph 87% 0 in 97.00 W/m2 unknown
16:54 48.2 °F 44.6 °F 30 in WSW 7.5 mph 9.3 mph 87% 0 in 109.00 W/m2 unknown
16:59 48.2 °F 44.6 °F 30 in WSW 6.2 mph 8.7 mph 87% 0 in 97.00 W/m2 unknown
17:04 48.2 °F 44.6 °F 30 in WSW 6.2 mph 6.8 mph 87% 0 in 90.00 W/m2 unknown
17:09 48.2 °F 44.6 °F 30 in WSW 5.6 mph 6.8 mph 87% 0 in 67.00 W/m2 unknown
17:14 48.2 °F 44.6 °F 30 in WSW 5.6 mph 8.1 mph 88% 0 in 44.00 W/m2 unknown
17:19 46.4 °F 44.6 °F 30 in WSW 5 mph 8.1 mph 89% 0 in 40.00 W/m2 unknown
17:24 46.4 °F 44.6 °F 30 in WSW 5.6 mph 6.8 mph 89% 0 in 35.00 W/m2 unknown
17:29 46.4 °F 42.8 °F 30 in WSW 5 mph 6.8 mph 90% 0 in 26.00 W/m2 unknown
17:34 46.4 °F 42.8 °F 30 in WSW 5 mph 6.8 mph 90% 0 in 19.00 W/m2 unknown
17:39 46.4 °F 42.8 °F 30 in SW 3.7 mph 6.8 mph 91% 0 in 14.00 W/m2 unknown
17:44 46.4 °F 42.8 °F 30 in SW 3.1 mph 5 mph 91% 0 in 9.00 W/m2 unknown
17:49 46.4 °F 42.8 °F 30 in WSW 4.3 mph 5 mph 91% 0 in 5.00 W/m2 unknown
17:54 44.6 °F 42.8 °F 30 in WSW 4.3 mph 5 mph 91% 0 in 0.00 W/m2 unknown
17:59 44.6 °F 42.8 °F 30 in WSW 5.6 mph 6.8 mph 91% 0 in 0.00 W/m2 unknown
18:04 44.6 °F 41 °F 30 in WSW 5.6 mph 6.8 mph 92% 0 in 0.00 W/m2 unknown
18:09 44.6 °F 41 °F 30 in WSW 5 mph 6.8 mph 92% 0 in 0.00 W/m2 unknown
18:14 44.6 °F 41 °F 30 in WSW 5.6 mph 6.8 mph 92% 0 in 0.00 W/m2 unknown
18:19 44.6 °F 41 °F 30 in SW 5.6 mph 6.8 mph 92% 0 in 0.00 W/m2 unknown
18:24 44.6 °F 41 °F 30 in SW 5 mph 6.8 mph 92% 0 in 0.00 W/m2 unknown
18:29 44.6 °F 41 °F 30 in WSW 5 mph 6.2 mph 92% 0 in 0.00 W/m2 unknown
18:34 42.8 °F 41 °F 30 in West 5 mph 6.8 mph 92% 0 in 0.00 W/m2 unknown
18:39 42.8 °F 41 °F 30 in WSW 5.6 mph 6.8 mph 93% 0 in 0.00 W/m2 unknown
18:44 42.8 °F 41 °F 30 in WSW 3.1 mph 6.2 mph 93% 0 in 0.00 W/m2 unknown
18:49 42.8 °F 41 °F 30 in SW 3.1 mph 3.7 mph 93% 0 in 0.00 W/m2 unknown
18:54 42.8 °F 41 °F 30 in SSW 1.9 mph 3.7 mph 93% 0 in 0.00 W/m2 unknown
18:59 42.8 °F 41 °F 30 in SSW 2.5 mph 3.7 mph 93% 0 in 0.00 W/m2 unknown
19:04 42.8 °F 41 °F 30 in SW 2.5 mph 3.7 mph 94% 0 in 0.00 W/m2 unknown
19:09 42.8 °F 41 °F 30 in SW 3.1 mph 5 mph 94% 0 in 0.00 W/m2 unknown
19:14 42.8 °F 41 °F 30 in SW 3.1 mph 5 mph 94% 0 in 0.00 W/m2 unknown
19:19 42.8 °F 41 °F 30 in SW 2.5 mph 5 mph 94% 0 in 0.00 W/m2 unknown
19:24 42.8 °F 41 °F 30 in SW 3.7 mph 5 mph 94% 0 in 0.00 W/m2 unknown
19:29 42.8 °F 41 °F 30 in WSW 3.7 mph 5 mph 94% 0 in 0.00 W/m2 unknown
19:34 42.8 °F 41 °F 30 in WSW 3.7 mph 5 mph 94% 0 in 0.00 W/m2 unknown
19:39 42.8 °F 41 °F 30 in WSW 3.7 mph 5 mph 94% 0 in 0.00 W/m2 unknown
19:44 41 °F 41 °F 30 in SW 3.7 mph 5 mph 94% 0 in 0.00 W/m2 unknown
19:49 41 °F 39.2 °F 30 in SW 3.1 mph 5 mph 94% 0 in 0.00 W/m2 unknown
19:54 41 °F 39.2 °F 30 in SW 3.7 mph 5 mph 94% 0 in 0.00 W/m2 unknown
19:59 41 °F 39.2 °F 30 in SW 3.1 mph 5 mph 95% 0 in 0.00 W/m2 unknown
20:04 41 °F 39.2 °F 30 in WSW 3.1 mph 5 mph 95% 0 in 0.00 W/m2 unknown
20:09 41 °F 39.2 °F 30 in West 3.7 mph 3.7 mph 95% 0 in 0.00 W/m2 unknown
20:14 41 °F 39.2 °F 30 in West 3.1 mph 3.7 mph 95% 0 in 0.00 W/m2 unknown
20:19 41 °F 39.2 °F 30 in West 1.9 mph 3.7 mph 95% 0 in 0.00 W/m2 unknown
20:24 41 °F 39.2 °F 30 in West 1.9 mph 3.7 mph 95% 0 in 0.00 W/m2 unknown
20:29 41 °F 39.2 °F 30 in West 2.5 mph 3.7 mph 95% 0 in 0.00 W/m2 unknown
20:34 41 °F 39.2 °F 30 in West 3.1 mph 3.7 mph 95% 0 in 0.00 W/m2 unknown
20:39 39.2 °F 39.2 °F 30 in West 3.1 mph 3.7 mph 95% 0 in 0.00 W/m2 unknown
20:44 39.2 °F 37.4 °F 30 in West 2.5 mph 3.7 mph 95% 0 in 0.00 W/m2 unknown
20:49 39.2 °F 37.4 °F 30 in West 1.9 mph 3.1 mph 95% 0 in 0.00 W/m2 unknown
20:54 39.2 °F 37.4 °F 30 in WSW 1.2 mph 1.9 mph 95% 0 in 0.00 W/m2 unknown
20:59 39.2 °F 37.4 °F 30 in SSW 1.2 mph 2.5 mph 95% 0 in 0.00 W/m2 unknown
21:04 39.2 °F 37.4 °F 30 in SSW 1.9 mph 2.5 mph 96% 0 in 0.00 W/m2 unknown
21:09 39.2 °F 37.4 °F 30 in SSW 1.9 mph 2.5 mph 96% 0 in 0.00 W/m2 unknown
21:14 39.2 °F 37.4 °F 30 in SSW 1.2 mph 2.5 mph 96% 0 in 0.00 W/m2 unknown
21:19 39.2 °F 37.4 °F 30 in SW 2.5 mph 3.7 mph 96% 0 in 0.00 W/m2 unknown
21:24 39.2 °F 37.4 °F 30 in WSW 2.5 mph 3.7 mph 96% 0 in 0.00 W/m2 unknown
21:29 37.4 °F 37.4 °F 30 in WSW 2.5 mph 3.7 mph 96% 0 in 0.00 W/m2 unknown
21:34 37.4 °F 37.4 °F 30 in West 3.7 mph 3.7 mph 96% 0 in 0.00 W/m2 unknown
21:39 37.4 °F 37.4 °F 30 in West 3.1 mph 3.7 mph 96% 0 in 0.00 W/m2 unknown
21:44 37.4 °F 37.4 °F 30 in WSW 3.1 mph 3.7 mph 96% 0 in 0.00 W/m2 unknown
21:49 37.4 °F 35.6 °F 30 in WSW 3.1 mph 3.7 mph 96% 0 in 0.00 W/m2 unknown
21:54 37.4 °F 35.6 °F 30 in WSW 3.1 mph 3.7 mph 96% 0 in 0.00 W/m2 unknown
21:59 37.4 °F 35.6 °F 30 in WSW 3.1 mph 3.7 mph 96% 0 in 0.00 W/m2 unknown
22:04 37.4 °F 35.6 °F 30 in WSW 3.1 mph 3.7 mph 97% 0 in 0.00 W/m2 unknown
22:09 37.4 °F 37.4 °F 30 in West 2.5 mph 3.7 mph 97% 0 in 0.00 W/m2 unknown
22:14 37.4 °F 37.4 °F 30 in WSW 1.9 mph 3.7 mph 97% 0 in 0.00 W/m2 unknown
22:19 37.4 °F 37.4 °F 30 in WSW 1.9 mph 3.1 mph 97% 0 in 0.00 W/m2 unknown
22:24 37.4 °F 35.6 °F 30 in WSW 3.1 mph 3.7 mph 97% 0 in 0.00 W/m2 unknown
22:29 37.4 °F 35.6 °F 30 in WSW 3.1 mph 3.7 mph 97% 0 in 0.00 W/m2 unknown
22:34 35.6 °F 35.6 °F 30 in WSW 3.7 mph 3.7 mph 97% 0 in 0.00 W/m2 unknown
22:39 35.6 °F 35.6 °F 30 in WSW 3.7 mph 5 mph 97% 0 in 0.00 W/m2 unknown
22:44 35.6 °F 35.6 °F 30 in WSW 3.7 mph 5 mph 97% 0 in 0.00 W/m2 unknown
22:49 35.6 °F 35.6 °F 30 in WSW 3.7 mph 5 mph 97% 0 in 0.00 W/m2 unknown
22:54 35.6 °F 35.6 °F 30 in WSW 3.7 mph 5 mph 97% 0 in 0.00 W/m2 unknown
22:59 35.6 °F 35.6 °F 30 in WSW 3.7 mph 5 mph 97% 0 in 0.00 W/m2 unknown
23:04 37.4 °F 35.6 °F 30 in SW 5.6 mph 6.8 mph 97% 0 in 0.00 W/m2 unknown
23:09 37.4 °F 37.4 °F 30 in SW 5 mph 6.8 mph 97% 0 in 0.00 W/m2 unknown
23:14 37.4 °F 37.4 °F 30 in South 2.5 mph 6.8 mph 98% 0 in 0.00 W/m2 unknown
23:19 37.4 °F 37.4 °F 30 in SSE 2.5 mph 3.7 mph 98% 0 in 0.00 W/m2 unknown
23:24 37.4 °F 35.6 °F 30 in SSW 4.3 mph 5 mph 97% 0 in 0.00 W/m2 unknown
23:29 35.6 °F 35.6 °F 30 in SW 4.3 mph 6.2 mph 97% 0 in 0.00 W/m2 unknown
23:34 35.6 °F 35.6 °F 30 in SW 3.7 mph 6.2 mph 97% 0 in 0.00 W/m2 unknown
23:39 35.6 °F 35.6 °F 30 in SW 3.7 mph 5 mph 97% 0 in 0.00 W/m2 unknown
23:44 35.6 °F 35.6 °F 30 in SW 3.7 mph 5 mph 97% 0 in 0.00 W/m2 unknown
23:49 35.6 °F 35.6 °F 30 in SW 3.1 mph 5 mph 97% 0 in 0.00 W/m2 unknown
23:54 35.6 °F 35.6 °F 30 in WSW 3.1 mph 5 mph 98% 0 in 0.00 W/m2 unknown
23:59 35.6 °F 35.6 °F 30 in SW 3.7 mph 5 mph 98% 0 in 0.00 W/m2 unknown
Stazione Meteorologica MeteoMincio Rivalta s/M (MN)
Con i complimenti di Weather Underground - 4 mb



GLOSSARIO METEOROLOGICO
Nube
Insieme di piccolissime particelle di acqua (liquida) o di ghiaccio, oppure dell'una e dell'altro insieme, in sospensione nell'atmosfera. Essa può anche contenere particelle d'acqua, allo stato liquido o solido, di dimensioni più grandi, e particelle provenienti, per esempio, da vapori industriali, da fumo, da polveri.
Share

Non seguire questo link o sarai bannato dal sito!